Buffalo, NY

1:39 PM EST on November 22, 2019 (GMT -0500)
Buffalo Niagara International

Weather History for KBUF - September, 2019

Change the Weather History Date:

Thursday, September 5, 2019

  Actual Average Record
Temperature  
Mean Temperature 64 °F 66 °F  
Max Temperature 73 °F 75 °F 92 °F (1948)
Min Temperature 55 °F 57 °F 42 °F (1963)
Degree Days  
Heating Degree Days 1 2  
Month to date heating degree days 1 9  
Since 1 July heating degree days 4 36  
Cooling Degree Days 0 3  
Month to date cooling degree days 12 16  
Year to date cooling degree days 557 503  
Growing Degree Days 14 (Base 50)    
Moisture  
Dew Point 51 °F    
Average Humidity 66    
Maximum Humidity 86    
Minimum Humidity 46    
Precipitation  
Precipitation 0.00 in 0.11 in 1.34 in (1926)
Month to date precipitation 1.83 0.58  
Year to date precipitation 30.20 25.74  
Snow  
Snow 0.00 in 0.00 in 0.00 in ()
Month to date snowfall 0.0 0.0  
Since 1 July snowfall 0.0 0.0  
Since 1 September snowfall 0.0 0.0  
Snow Depth 0.00 in    
Sea Level Pressure  
Sea Level Pressure 30.11 in    
Wind  
Wind Speed 4 mph (NNE)    
Max Wind Speed 12 mph    
Max Gust Speed 17 mph    
Visibility 10 miles    
Events      
T = Trace of Precipitation, MM = Missing Value Source: NWS Daily Summary

Daily Weather History Graph

Daily Weather History Graph

Search for Another Location

Airport or City:

Astronomy

Sep. 05, 2019 Rise Set
Actual Time 6:43 AM EDT 7:43 PM EDT
Civil Twilight 6:14 AM EDT 8:11 PM EDT
Nautical Twilight 5:39 AM EDT 8:46 PM EDT
Astronomical Twilight 5:03 AM EDT 9:22 PM EDT
Moon 1:58 PM EDT (9/5) 11:46 PM EDT (9/5)
Length of Visible Light 13h 57m
Length of Day
12h 59m
Waxing Crescent, 45% of the Moon is Illuminated
Sep 5
Waxing Crescent
Sep 5
First Quarter
Sep 14
Full
Sep 21
Last Quarter
Sep 28
New

Hourly Weather History & Observations

Time (EDT) Temp. Dew Point Humidity Pressure Visibility Wind Dir Wind Speed Gust Speed Precip Events Conditions
12:54 AM 61.0 °F 52.0 °F 72% 30.10 in 10.0 mi North 6.9 mph - N/A   Mostly Cloudy
1:54 AM 60.1 °F 51.1 °F 72% 30.10 in 10.0 mi North 5.8 mph - N/A   Partly Cloudy
2:54 AM 57.9 °F 50.0 °F 75% 30.10 in 10.0 mi NNE 4.6 mph - N/A   Partly Cloudy
3:54 AM 57.9 °F 51.1 °F 78% 30.11 in 10.0 mi Calm Calm - N/A   Mostly Cloudy
4:54 AM 57.0 °F 51.1 °F 81% 30.12 in 10.0 mi Calm Calm - N/A   Scattered Clouds
5:54 AM 55.9 °F 50.0 °F 80% 30.12 in 10.0 mi Calm Calm - N/A   Partly Cloudy
6:54 AM 55.9 °F 51.1 °F 84% 30.14 in 10.0 mi Calm Calm - N/A   Clear
7:54 AM 57.9 °F 52.0 °F 81% 30.16 in 10.0 mi Calm Calm - N/A   Scattered Clouds
8:54 AM 61.0 °F 53.1 °F 75% 30.16 in 10.0 mi Calm Calm - N/A   Mostly Cloudy
9:54 AM 64.0 °F 53.1 °F 67% 30.17 in 10.0 mi Calm Calm - N/A   Partly Cloudy
10:54 AM 64.9 °F 48.9 °F 56% 30.17 in 10.0 mi NW 4.6 mph - N/A   Mostly Cloudy
11:54 AM 66.9 °F 50.0 °F 54% 30.15 in 10.0 mi Calm Calm - N/A   Scattered Clouds
12:54 PM 69.1 °F 50.0 °F 51% 30.14 in 10.0 mi NNE 5.8 mph - N/A   Scattered Clouds
1:54 PM 71.1 °F 50.0 °F 47% 30.12 in 10.0 mi Calm Calm - N/A   Scattered Clouds
2:54 PM 71.1 °F 50.0 °F 47% 30.10 in 10.0 mi Variable 3.5 mph - N/A   Scattered Clouds
3:54 PM 72.0 °F 50.0 °F 46% 30.09 in 10.0 mi NNE 4.6 mph - N/A   Scattered Clouds
4:54 PM 73.0 °F 51.1 °F 46% 30.09 in 10.0 mi Variable 3.5 mph - N/A   Mostly Cloudy
5:54 PM 71.1 °F 53.1 °F 53% 30.08 in 10.0 mi North 9.2 mph 17.3 mph N/A   Mostly Cloudy
6:54 PM 68.0 °F 55.0 °F 63% 30.08 in 10.0 mi North 6.9 mph - N/A   Scattered Clouds
7:54 PM 64.0 °F 54.0 °F 70% 30.09 in 10.0 mi NNE 6.9 mph - N/A   Partly Cloudy
8:54 PM 62.1 °F 53.1 °F 72% 30.08 in 10.0 mi ENE 5.8 mph - N/A   Partly Cloudy
9:54 PM 61.0 °F 53.1 °F 75% 30.07 in 10.0 mi ESE 6.9 mph - N/A   Partly Cloudy
10:54 PM 60.1 °F 52.0 °F 75% 30.07 in 10.0 mi ESE 6.9 mph - N/A   Scattered Clouds
11:54 PM 60.1 °F 53.1 °F 78% 30.05 in 10.0 mi ESE 6.9 mph - N/A   Scattered Clouds